Location: Ward Pound Ridge Reservation
(41.2500°N, 73.6000°W)
Time: 06:25:57
(UTC-04:00)

N. Korean satellite - Pass Details

Date: 15 October 2017
Orbit: 459 x 517 km, 97.2° (Epoch: 20 October)

Event Time Altitude Azimuth Distance (km) Brightness Sun altitude
Rises 18:59:10 0° 169° (S) 2,544 10.1 -9.4°
Reaches altitude 10° 19:01:15 10° 171° (S) 1,658 9.2 -9.8°
Maximum altitude 19:04:48 80° 258° (WSW) 489 6.6 -10.5°
Drops below altitude 10° 19:08:20 10° 346° (NNW) 1,642 9.4 -11.1°
Sets 19:10:23 0° 348° (NNW) 2,516 10.3 -11.5°
